Home   Weather   Nashua   Past weeks
Flag for USA

Past Weather in Nashua, New Hampshire, USA — Yesterday and Last 2 Weeks

Now
70 °F

Overcast.


Feels Like: 76 °F
Forecast: 92 / 62 °F
Wind: 5 mph from East

Location: Nashua / Boire Field

Current Time: Jul 18, 2019 at 10:09:36 pm

Latest Report: Jul 18, 2019 at 8:56 pm


Visibility: 10 mi

Pressure: 29.97 "Hg

Humidity: 59%

Dew Point: 55 °F

Location of NashuaLocation

Past Weather in Nashua — Graph

°F

Nashua Temperature Yesterday

Maximum temperature yesterday: 88 °F (at 1:56 pm)
Minimum temperature yesterday: 73 °F (at 2:56 am)
Average temperature yesterday: 77 °F

High & Low Weather Summary for the Past Weeks

 TemperatureHumidityPressure
High91 °F (Jul 6, 1:56 pm)100% (Jul 5, 2:56 am)30.19 "Hg (Jul 5, 2:56 am)
Low55 °F (Jul 8, 4:56 am)29% (Jul 9, 4:56 pm)29.68 "Hg (Jul 12, 4:56 pm)
Average75 °F75%29.96 "Hg
* Reported Jul 3 8:56 pm — Jul 18 8:56 pm, Nashua. Weather by CustomWeather, © 2019

Note: Actual official high and low records may vary slightly from our data, if they occured in-between our weather recording intervals... More about our weather records

Advertising

Nashua Weather History for the Previous 24 Hours

Scroll right to see more
 ConditionsComfort  
Time TempWeatherWind HumidityBarometerVisibility
8:56 pm
Thu, Jul 18
70 °FOvercast.5 mph59%29.97 "Hg10 mi
7:56 pm71 °FOvercast.7 mph61%29.98 "Hg10 mi
7:37 pm72 °FOvercast.6 mph57%29.97 "Hg10 mi
6:56 pm72 °FOvercast.6 mph52%29.99 "Hg10 mi
5:56 pm73 °FOvercast.6 mph53%29.98 "Hg10 mi
4:56 pm73 °FOvercast.9 mph53%29.99 "Hg10 mi
3:56 pm75 °FOvercast.8 mph52%29.99 "Hg10 mi
2:56 pm75 °FOvercast.10 mph48%29.98 "Hg10 mi
1:56 pm75 °FOvercast.10 mph52%30.01 "Hg10 mi
12:56 pm75 °FOvercast.10 mph52%30.02 "Hg10 mi
11:56 am74 °FOvercast.9 mph57%30.03 "Hg10 mi
10:56 am72 °FOvercast.7 mph64%30.03 "Hg10 mi
9:56 am69 °FOvercast.5 mph76%30.04 "Hg10 mi
9:24 am68 °FOvercast.6 mph83%30.04 "Hg10 mi
8:56 am68 °FLight rain. Overcast.6 mph84%30.04 "Hg10 mi
7:56 am70 °FOvercast.7 mph84%30.03 "Hg10 mi
6:56 am71 °FMostly cloudy.5 mph93%30.00 "Hg10 mi
6:27 am72 °FMostly cloudy.6 mph100%29.98 "Hg10 mi
5:56 am71 °FPartly sunny.No wind100%29.97 "Hg10 mi
4:56 am71 °FClear.No wind100%29.94 "Hg10 mi
3:56 am72 °FOvercast.5 mph100%29.91 "Hg10 mi
2:56 am71 °FPassing clouds.5 mph100%29.91 "Hg10 mi
1:56 am72 °FPassing clouds.No wind100%29.91 "Hg9 mi
12:56 am72 °FPassing clouds.No wind100%29.93 "Hg9 mi
11:56 pm
Wed, Jul 17
73 °FClear.No wind100%29.93 "Hg10 mi
10:56 pm73 °FClear.No wind100%29.93 "Hg10 mi
Weather by CustomWeather, © 2019

See weather overview